| time (UTC) | temp F | wind direction | speed MPH | gust MPH | rain 1hr in | rain 24hr in | rain mn in | humidity % | barometer mb |
| 20260507113704 | 66 | 16 | 3.0 | 8.0 | 0.00 | 0.00 | 0.00 | 70 | 1012.0 |
| 20260507113204 | 66 | 51 | 3.0 | 12.0 | 0.00 | 0.00 | 0.00 | 70 | 1012.0 |
| 20260507111704 | 67 | 2 | 5.0 | 10.0 | 0.00 | 0.00 | 0.00 | 68 | 1012.4 |
| 20260507110704 | 68 | 93 | 2.0 | 3.0 | 0.00 | 0.00 | 0.00 | 64 | 1012.4 |
| 20260507110204 | 67 | 66 | 2.0 | 7.0 | 0.00 | 0.00 | 0.00 | 66 | 1012.4 |
| 20260507104704 | 66 | 324 | 2.0 | 8.0 | 0.00 | 0.00 | 0.00 | 66 | 1012.5 |
| 20260507104204 | 66 | 356 | 2.0 | 5.0 | 0.00 | 0.00 | 0.00 | 66 | 1012.5 |
| 20260507103704 | 66 | 53 | 3.0 | 5.0 | 0.00 | 0.00 | 0.00 | 66 | 1012.5 |
| 20260507103205 | 66 | 36 | 2.0 | 9.0 | 0.00 | 0.00 | 0.00 | 67 | 1012.5 |
| 20260507101704 | 65 | 17 | 2.0 | 7.0 | 0.00 | 0.00 | 0.00 | 68 | 1012.6 |
| 20260507101204 | 65 | 354 | 2.0 | 3.0 | 0.00 | 0.00 | 0.00 | 69 | 1012.6 |
| 20260507100704 | 65 | 320 | 3.0 | 10.0 | 0.00 | 0.00 | 0.00 | 69 | 1012.7 |
| 20260507100204 | 65 | 19 | 2.0 | 5.0 | 0.00 | 0.00 | 0.00 | 68 | 1012.8 |
| 20260507094704 | 66 | 43 | 2.0 | 5.0 | 0.00 | 0.00 | 0.00 | 69 | 1012.9 |
| 20260507094204 | 66 | 97 | 1.0 | 3.0 | 0.00 | 0.00 | 0.00 | 69 | 1012.9 |
| 20260507093704 | 66 | 123 | 1.0 | 3.0 | 0.00 | 0.00 | 0.00 | 69 | 1012.9 |
| 20260507093204 | 65 | 40 | 1.0 | 3.0 | 0.00 | 0.00 | 0.00 | 70 | 1012.9 |
| 20260507091704 | 64 | 32 | 2.0 | 5.0 | 0.00 | 0.00 | 0.00 | 71 | 1013.0 |
| 20260507091205 | 64 | 18 | 2.0 | 5.0 | 0.00 | 0.00 | 0.00 | 71 | 1013.1 |
| 20260507090705 | 64 | 19 | 3.0 | 5.0 | 0.00 | 0.00 | 0.00 | 70 | 1013.1 |
| 20260507090205 | 65 | 64 | 0.0 | 5.0 | 0.00 | 0.00 | 0.00 | 71 | 1013.1 |
| 20260507084704 | 64 | 312 | 2.0 | 5.0 | 0.00 | 0.00 | 0.00 | 72 | 1012.8 |
| 20260507084204 | 64 | 0 | 1.0 | 3.0 | 0.00 | 0.00 | 0.00 | 72 | 1012.9 |
| 20260507083705 | 63 | 27 | 3.0 | 7.0 | 0.00 | 0.00 | 0.00 | 73 | 1013.0 |
| 20260507083204 | 63 | 40 | 0.0 | 3.0 | 0.00 | 0.00 | 0.00 | 74 | 1012.9 |
| 20260507081704 | 62 | 17 | 2.0 | 3.0 | 0.00 | 0.00 | 0.00 | 74 | 1012.8 |
| 20260507081204 | 62 | 333 | 0.0 | 3.0 | 0.00 | 0.00 | 0.00 | 74 | 1012.8 |
| 20260507080704 | 61 | 11 | 2.0 | 5.0 | 0.00 | 0.00 | 0.00 | 74 | 1012.9 |
| 20260507080204 | 61 | 340 | 1.0 | 5.0 | 0.00 | 0.00 | 0.00 | 73 | 1013.0 |
| 20260507074704 | 61 | 238 | 1.0 | 2.0 | 0.00 | 0.00 | 0.00 | 75 | 1013.0 |
| 20260507073704 | 61 | 292 | 0.0 | 0.0 | 0.00 | 0.00 | 0.00 | 77 | 1013.1 |
| 20260507073204 | 60 | 291 | 0.0 | 3.0 | 0.00 | 0.00 | 0.00 | 78 | 1013.1 |
| 20260507071704 | 60 | 304 | 1.0 | 3.0 | 0.00 | 0.00 | 0.00 | 81 | 1012.9 |
| 20260507071204 | 60 | 304 | 1.0 | 3.0 | 0.00 | 0.00 | 0.00 | 82 | 1012.8 |
| 20260507070704 | 59 | 9 | 0.0 | 0.0 | 0.00 | 0.00 | 0.00 | 83 | 1012.8 |
| 20260507064205 | 59 | 29 | 0.0 | 0.0 | 0.00 | 0.00 | 0.00 | 86 | 1012.7 |
| 20260507063204 | 58 | 29 | 0.0 | 0.0 | 0.00 | 0.00 | 0.00 | 86 | 1012.7 |
| 20260507061704 | 58 | 29 | 0.0 | 0.0 | 0.00 | 0.00 | 0.00 | 86 | 1012.6 |
| 20260507061204 | 58 | 29 | 0.0 | 0.0 | 0.00 | 0.00 | 0.00 | 86 | 1012.5 |
| 20260507060204 | 57 | 29 | 0.0 | 0.0 | 0.00 | 0.00 | 0.00 | 87 | 1012.5 |
| 20260507054704 | 57 | 28 | 0.0 | 0.0 | 0.00 | 0.00 | 0.00 | 86 | 1012.3 |
| 20260507053704 | 57 | 28 | 0.0 | 0.0 | 0.00 | 0.00 | 0.00 | 86 | 1012.1 |
| 20260507053204 | 57 | 298 | 0.0 | 0.0 | 0.00 | 0.00 | 0.00 | 86 | 1012.1 |
| 20260507051704 | 57 | 298 | 0.0 | 0.0 | 0.00 | 0.00 | 0.00 | 86 | 1011.9 |
| 20260507051205 | 57 | 298 | 0.0 | 0.0 | 0.00 | 0.00 | 0.00 | 86 | 1011.9 |
| 20260507050704 | 57 | 299 | 0.0 | 0.0 | 0.00 | 0.00 | 0.00 | 86 | 1011.9 |
| 20260507050205 | 57 | 299 | 0.0 | 0.0 | 0.00 | 0.00 | 0.00 | 86 | 1012.0 |
| 20260507044705 | 57 | 266 | 0.0 | 0.0 | 0.00 | 0.00 | 0.00 | 86 | 1012.1 |
| 20260507044204 | 57 | 266 | 0.0 | 0.0 | 0.00 | 0.00 | 0.00 | 86 | 1012.0 |
| 20260507043704 | 57 | 266 | 0.0 | 0.0 | 0.00 | 0.00 | 0.00 | 86 | 1012.0 |
| 20260507043204 | 57 | 266 | 0.0 | 0.0 | 0.00 | 0.00 | 0.00 | 86 | 1012.0 |
| 20260507041704 | 57 | 167 | 0.0 | 0.0 | 0.00 | 0.00 | 0.00 | 87 | 1011.9 |
| 20260507041204 | 57 | 167 | 0.0 | 0.0 | 0.00 | 0.00 | 0.00 | 87 | 1011.8 |
| 20260507040204 | 57 | 167 | 0.0 | 3.0 | 0.00 | 0.00 | 0.00 | 88 | 1011.6 |
| 20260507034704 | 56 | 29 | 0.0 | 0.0 | 0.00 | 0.00 | 0.00 | 88 | 1011.7 |
| 20260507034204 | 56 | 26 | 0.0 | 0.0 | 0.00 | 0.00 | 0.00 | 88 | 1011.7 |
| 20260507033704 | 56 | 23 | 0.0 | 0.0 | 0.00 | 0.00 | 0.00 | 88 | 1011.7 |
| 20260507031704 | 56 | 22 | 0.0 | 0.0 | 0.00 | 0.00 | 0.00 | 87 | 1011.8 |
| 20260507030704 | 56 | 22 | 0.0 | 0.0 | 0.00 | 0.00 | 0.00 | 86 | 1011.8 |
| 20260507030204 | 56 | 22 | 0.0 | 0.0 | 0.00 | 0.00 | 0.00 | 86 | 1011.9 |
| 20260507024705 | 57 | 22 | 0.0 | 0.0 | 0.00 | 0.00 | 0.00 | 86 | 1012.0 |
| 20260507023704 | 57 | 22 | 0.0 | 0.0 | 0.00 | 0.00 | 0.00 | 85 | 1011.8 |
| 20260507023204 | 57 | 22 | 0.0 | 0.0 | 0.00 | 0.00 | 0.00 | 85 | 1011.9 |
| 20260507021704 | 57 | 22 | 0.0 | 0.0 | 0.00 | 0.00 | 0.00 | 85 | 1012.0 |
| 20260507021204 | 57 | 22 | 0.0 | 0.0 | 0.00 | 0.00 | 0.00 | 85 | 1012.1 |
| 20260507020704 | 57 | 22 | 0.0 | 0.0 | 0.00 | 0.00 | 0.00 | 85 | 1012.1 |
| 20260507014704 | 58 | 22 | 0.0 | 0.0 | 0.00 | 0.00 | 0.00 | 84 | 1012.2 |
| 20260507014204 | 58 | 22 | 0.0 | 0.0 | 0.00 | 0.00 | 0.00 | 84 | 1012.2 |
| 20260507013703 | 58 | 22 | 0.0 | 0.0 | 0.00 | 0.00 | 0.00 | 84 | 1012.1 |
| 20260507013204 | 58 | 22 | 0.0 | 0.0 | 0.00 | 0.00 | 0.00 | 83 | 1012.1 |
| 20260507011704 | 58 | 22 | 0.0 | 0.0 | 0.00 | 0.00 | 0.00 | 83 | 1012.2 |
| 20260507010204 | 59 | 290 | 0.0 | 3.0 | 0.00 | 0.00 | 0.00 | 81 | 1012.2 |
| 20260507004703 | 59 | 265 | 2.0 | 3.0 | 0.00 | 0.00 | 0.00 | 81 | 1012.3 |
| 20260507003704 | 59 | 287 | 1.0 | 3.0 | 0.00 | 0.00 | 0.00 | 81 | 1012.2 |
| 20260507001704 | 59 | 285 | 2.0 | 3.0 | 0.00 | 0.00 | 0.00 | 82 | 1012.5 |
| 20260507000703 | 59 | 290 | 1.0 | 3.0 | 0.00 | 0.00 | 0.00 | 82 | 1012.6 |
| 20260507000205 | 59 | 292 | 2.0 | 3.0 | 0.00 | 0.00 | 0.00 | 82 | 1012.6 |
| 20260506234205 | 60 | 253 | 1.0 | 3.0 | 0.00 | 0.00 | 0.00 | 80 | 1012.4 |
| 20260506233706 | 60 | 253 | 1.0 | 2.0 | 0.00 | 0.00 | 0.00 | 80 | 1012.4 |
| 20260506231705 | 60 | 252 | 2.0 | 3.0 | 0.00 | 0.00 | 0.00 | 79 | 1012.6 |
| 20260506231205 | 60 | 247 | 2.0 | 5.0 | 0.00 | 0.00 | 0.00 | 79 | 1012.6 |
| 20260506230706 | 60 | 286 | 2.0 | 3.0 | 0.00 | 0.00 | 0.00 | 79 | 1012.7 |
| 20260506230205 | 60 | 285 | 2.0 | 3.0 | 0.00 | 0.00 | 0.00 | 79 | 1012.8 |
| 20260506224705 | 60 | 301 | 1.0 | 3.0 | 0.00 | 0.00 | 0.00 | 79 | 1012.8 |
| 20260506223705 | 60 | 301 | 1.0 | 3.0 | 0.00 | 0.00 | 0.00 | 79 | 1012.8 |
| 20260506223205 | 61 | 299 | 0.0 | 3.0 | 0.00 | 0.00 | 0.00 | 79 | 1012.8 |
| 20260506221705 | 61 | 302 | 1.0 | 3.0 | 0.00 | 0.00 | 0.00 | 79 | 1012.8 |
| 20260506221205 | 61 | 303 | 2.0 | 3.0 | 0.00 | 0.00 | 0.00 | 79 | 1012.7 |
| 20260506220705 | 61 | 288 | 2.0 | 3.0 | 0.00 | 0.00 | 0.00 | 79 | 1012.7 |
| 20260506220205 | 61 | 253 | 3.0 | 6.0 | 0.00 | 0.00 | 0.00 | 79 | 1012.7 |
| 20260506214705 | 61 | 235 | 2.0 | 3.0 | 0.00 | 0.00 | 0.00 | 79 | 1012.8 |
| 20260506214205 | 61 | 242 | 3.0 | 6.0 | 0.00 | 0.00 | 0.00 | 79 | 1012.8 |
| 20260506213705 | 61 | 264 | 4.0 | 7.0 | 0.00 | 0.00 | 0.00 | 78 | 1012.8 |
| 20260506213205 | 61 | 249 | 3.0 | 6.0 | 0.00 | 0.00 | 0.00 | 78 | 1012.8 |
| 20260506211205 | 61 | 352 | 0.0 | 2.0 | 0.00 | 0.00 | 0.00 | 78 | 1012.6 |
| 20260506210705 | 61 | 355 | 2.0 | 3.0 | 0.00 | 0.00 | 0.00 | 77 | 1012.5 |
| 20260506210205 | 61 | 350 | 1.0 | 3.0 | 0.00 | 0.00 | 0.00 | 77 | 1012.4 |
| 20260506204205 | 61 | 348 | 0.0 | 0.0 | 0.00 | 0.00 | 0.00 | 77 | 1012.1 |
| 20260506203204 | 61 | 348 | 0.0 | 3.0 | 0.00 | 0.00 | 0.00 | 77 | 1011.9 |
| 20260506201705 | 62 | 332 | 1.0 | 3.0 | 0.00 | 0.00 | 0.00 | 75 | 1011.7 |
| 20260506201205 | 62 | 307 | 1.0 | 3.0 | 0.00 | 0.00 | 0.00 | 75 | 1011.7 |
| 20260506193705 | 63 | 5 | 1.0 | 3.0 | 0.00 | 0.00 | 0.00 | 73 | 1011.1 |
| 20260506193205 | 63 | 252 | 0.0 | 3.0 | 0.00 | 0.00 | 0.00 | 71 | 1011.1 |
| 20260506191705 | 63 | 87 | 1.0 | 2.0 | 0.00 | 0.00 | 0.00 | 71 | 1010.9 |
| 20260506191205 | 64 | 86 | 0.0 | 0.0 | 0.00 | 0.00 | 0.00 | 70 | 1010.9 |
| 20260506190705 | 64 | 86 | 0.0 | 3.0 | 0.00 | 0.00 | 0.00 | 70 | 1010.7 |
| 20260506184705 | 65 | 103 | 0.0 | 0.0 | 0.00 | 0.00 | 0.00 | 68 | 1010.6 |
| 20260506184205 | 65 | 103 | 0.0 | 0.0 | 0.00 | 0.00 | 0.00 | 68 | 1010.6 |
| 20260506183705 | 65 | 103 | 0.0 | 0.0 | 0.00 | 0.00 | 0.00 | 67 | 1010.6 |
| 20260506183205 | 65 | 104 | 0.0 | 0.0 | 0.00 | 0.00 | 0.00 | 67 | 1010.5 |
| 20260506181705 | 66 | 115 | 1.0 | 3.0 | 0.00 | 0.00 | 0.00 | 66 | 1010.5 |
| 20260506181205 | 67 | 85 | 2.0 | 3.0 | 0.00 | 0.00 | 0.00 | 64 | 1010.4 |
| 20260506180705 | 67 | 113 | 1.0 | 3.0 | 0.00 | 0.00 | 0.00 | 64 | 1010.3 |
| 20260506180205 | 67 | 131 | 0.0 | 3.0 | 0.00 | 0.00 | 0.00 | 64 | 1010.3 |
| 20260506174705 | 67 | 181 | 3.0 | 7.0 | 0.00 | 0.00 | 0.00 | 63 | 1010.3 |
| 20260506174205 | 67 | 164 | 2.0 | 5.0 | 0.00 | 0.00 | 0.00 | 63 | 1010.3 |
| 20260506173705 | 67 | 165 | 4.0 | 6.0 | 0.00 | 0.00 | 0.00 | 62 | 1010.3 |
| 20260506173205 | 67 | 171 | 4.0 | 7.0 | 0.00 | 0.00 | 0.00 | 62 | 1010.3 |
| 20260506171705 | 68 | 154 | 3.0 | 7.0 | 0.00 | 0.00 | 0.00 | 61 | 1010.3 |
| 20260506171205 | 69 | 168 | 3.0 | 9.0 | 0.00 | 0.00 | 0.00 | 60 | 1010.3 |
| 20260506170705 | 69 | 81 | 1.0 | 3.0 | 0.00 | 0.00 | 0.00 | 60 | 1010.2 |
| 20260506170205 | 69 | 118 | 0.0 | 5.0 | 0.00 | 0.00 | 0.00 | 60 | 1010.3 |
| 20260506164706 | 70 | 126 | 0.0 | 3.0 | 0.00 | 0.00 | 0.00 | 59 | 1010.2 |
| 20260506164205 | 70 | 133 | 1.0 | 3.0 | 0.00 | 0.00 | 0.00 | 59 | 1010.1 |
| 20260506163705 | 70 | 185 | 2.0 | 6.0 | 0.00 | 0.00 | 0.00 | 58 | 1010.2 |
| 20260506161205 | 71 | 73 | 2.0 | 6.0 | 0.00 | 0.00 | 0.00 | 57 | 1010.1 |
| 20260506160705 | 71 | 72 | 2.0 | 3.0 | 0.00 | 0.00 | 0.00 | 57 | 1010.1 |
| 20260506160205 | 71 | 54 | 2.0 | 8.0 | 0.00 | 0.00 | 0.00 | 58 | 1010.1 |
| 20260506154204 | 71 | 87 | 1.0 | 3.0 | 0.00 | 0.00 | 0.00 | 61 | 1010.1 |
| 20260506153705 | 71 | 44 | 2.0 | 5.0 | 0.00 | 0.00 | 0.00 | 58 | 1010.1 |
| 20260506151704 | 70 | 80 | 2.0 | 3.0 | 0.00 | 0.00 | 0.00 | 56 | 1010.1 |
| 20260506151205 | 70 | 124 | 0.0 | 7.0 | 0.00 | 0.00 | 0.00 | 57 | 1010.0 |
| 20260506150705 | 70 | 117 | 2.0 | 5.0 | 0.00 | 0.00 | 0.00 | 57 | 1010.0 |
| 20260506150206 | 70 | 114 | 3.0 | 10.0 | 0.00 | 0.00 | 0.00 | 58 | 1010.0 |
| 20260506144205 | 71 | 81 | 3.0 | 9.0 | 0.00 | 0.00 | 0.00 | 55 | 1010.2 |
| 20260506143705 | 71 | 79 | 3.0 | 8.0 | 0.00 | 0.00 | 0.00 | 55 | 1010.2 |
| 20260506143205 | 71 | 86 | 4.0 | 12.0 | 0.00 | 0.00 | 0.00 | 56 | 1010.2 |
| 20260506141705 | 70 | 93 | 3.0 | 8.0 | 0.00 | 0.00 | 0.00 | 57 | 1010.4 |
| 20260506141205 | 71 | 104 | 4.0 | 12.0 | 0.00 | 0.00 | 0.00 | 56 | 1010.4 |
| 20260506140705 | 72 | 106 | 3.0 | 12.0 | 0.00 | 0.00 | 0.00 | 55 | 1010.3 |
| 20260506140205 | 71 | 81 | 3.0 | 12.0 | 0.00 | 0.00 | 0.00 | 57 | 1010.2 |
| 20260506134705 | 71 | 176 | 3.0 | 8.0 | 0.00 | 0.00 | 0.00 | 55 | 1010.5 |
| 20260506134205 | 71 | 136 | 5.0 | 12.0 | 0.00 | 0.00 | 0.00 | 55 | 1010.5 |
| 20260506133705 | 71 | 91 | 5.0 | 9.0 | 0.00 | 0.00 | 0.00 | 55 | 1010.5 |
| 20260506133205 | 71 | 137 | 4.0 | 13.0 | 0.00 | 0.00 | 0.00 | 56 | 1010.5 |
| 20260506131705 | 71 | 98 | 3.0 | 7.0 | 0.00 | 0.00 | 0.00 | 54 | 1010.6 |
| 20260506131205 | 72 | 106 | 2.0 | 7.0 | 0.00 | 0.00 | 0.00 | 54 | 1010.5 |
| 20260506130704 | 72 | 107 | 4.0 | 9.0 | 0.00 | 0.00 | 0.00 | 53 | 1010.6 |
| 20260506130205 | 72 | 41 | 3.0 | 7.0 | 0.00 | 0.00 | 0.00 | 55 | 1010.6 |
| 20260506124205 | 71 | 117 | 3.0 | 7.0 | 0.00 | 0.00 | 0.00 | 55 | 1010.8 |
| 20260506123705 | 72 | 102 | 3.0 | 7.0 | 0.00 | 0.00 | 0.00 | 54 | 1010.7 |
| 20260506123205 | 72 | 79 | 3.0 | 7.0 | 0.00 | 0.00 | 0.00 | 53 | 1010.8 |
| 20260506121705 | 71 | 170 | 2.0 | 7.0 | 0.00 | 0.00 | 0.00 | 54 | 1011.0 |
| 20260506121204 | 71 | 106 | 2.0 | 8.0 | 0.00 | 0.00 | 0.00 | 55 | 1011.1 |
| 20260506120705 | 71 | 55 | 1.0 | 5.0 | 0.00 | 0.00 | 0.00 | 56 | 1011.2 |
| 20260506120205 | 71 | 154 | 4.0 | 9.0 | 0.00 | 0.00 | 0.00 | 54 | 1011.2 |
| 20260506114704 | 71 | 80 | 2.0 | 3.0 | 0.00 | 0.00 | 0.00 | 55 | 1011.3 |
| 20260506114205 | 71 | 89 | 2.0 | 6.0 | 0.00 | 0.00 | 0.00 | 56 | 1011.3 |